Millington, TN

12:26 PM CDT on April 26, 2018 (GMT -0500)
Millington Municipal

Weather History for KNQA - January, 2012

Change the Weather History Date:

Thursday, January 26, 2012

  Actual Average Record
Temperature  
Mean Temperature 48 °F -  
Max Temperature 55 °F 49 °F 62 °F (2014)
Min Temperature 42 °F 32 °F 24 °F (2014)
Degree Days  
Heating Degree Days 16    
Moisture  
Dew Point 48 °F    
Average Humidity 99    
Maximum Humidity 100    
Minimum Humidity 93    
Precipitation  
Precipitation 0.00 in - - ()
Sea Level Pressure  
Sea Level Pressure 29.80 in    
Wind  
Wind Speed 7 mph (WNW)    
Max Wind Speed 17 mph    
Max Gust Speed 23 mph    
Visibility 4 miles    
Events Rain    
Averages and records for this station are not official NWS values.
T = Trace of Precipitation, MM = Missing Value Source: NWS Daily Summary

Daily Weather History Graph

Daily Weather History Graph

Search for Another Location

Airport or City:

Astronomy

Jan. 26, 2012 Rise Set
Actual Time 7:03 AM CST 5:20 PM CST
Civil Twilight 6:36 AM CST 5:48 PM CST
Nautical Twilight 6:05 AM CST 6:18 PM CST
Astronomical Twilight 5:35 AM CST 6:48 PM CST
Moon 8:40 AM CST 9:02 PM CST
Length of Visible Light 11h 11m
Length of Day
10h 17m
Waxing Crescent, 12% of the Moon is Illuminated
Jan 26
Waxing Crescent
Jan 30
First Quarter
Feb 7
Full
Feb 14
Last Quarter
Feb 21
New

Hourly Weather History & Observations

Time (CST) Temp. Windchill Dew Point Humidity Pressure Visibility Wind Dir Wind Speed Gust Speed Precip Events Conditions
12:55 AM 51.8 °F - 51.8 °F 100% 29.82 in 10.0 mi West 17.3 mph 23.0 mph N/A   Overcast
1:15 AM 53.6 °F - 53.6 °F 100% 29.84 in 10.0 mi West 8.1 mph - N/A   Overcast
1:35 AM 55.4 °F - 53.6 °F 94% 29.85 in 8.0 mi WSW 6.9 mph - N/A   Overcast
1:55 AM 55.4 °F - 53.6 °F 94% 29.86 in 7.0 mi WSW 10.4 mph - N/A   Overcast
2:15 AM 53.6 °F - 53.6 °F 100% 29.87 in 5.0 mi West 10.4 mph - N/A   Overcast
2:35 AM 53.6 °F - 51.8 °F 94% 29.86 in 3.0 mi WNW 5.8 mph - N/A   Overcast
2:55 AM 51.8 °F - 51.8 °F 100% 29.85 in 3.0 mi WNW 4.6 mph - N/A   Overcast
3:15 AM 51.8 °F - 51.8 °F 100% 29.84 in 0.8 mi Calm Calm - N/A   Overcast
3:35 AM 51.8 °F - 51.8 °F 100% 29.86 in 0.8 mi Calm Calm - N/A   Overcast
3:55 AM 51.8 °F - 51.8 °F 100% 29.82 in 1.2 mi East 3.5 mph - N/A   Overcast
4:15 AM 51.8 °F - 51.8 °F 100% 29.84 in 1.8 mi Calm Calm - N/A   Overcast
4:35 AM 51.8 °F - 51.8 °F 100% 29.84 in 0.5 mi Calm Calm - N/A   Overcast
4:55 AM 50.0 °F - 50.0 °F 100% 29.84 in 0.5 mi Calm Calm - N/A   Overcast
5:15 AM 51.8 °F - 51.8 °F 100% 29.85 in 0.5 mi SE 4.6 mph - N/A   Overcast
5:35 AM 51.8 °F - 51.8 °F 100% 29.85 in 1.5 mi Calm Calm - N/A   Overcast
6:15 AM 51.8 °F - 51.8 °F 100% 29.85 in 1.5 mi Calm Calm - N/A   Overcast
6:35 AM 51.8 °F - 51.8 °F 100% 29.84 in 1.5 mi Calm Calm - N/A   Overcast
6:55 AM 51.8 °F - 51.8 °F 100% 29.85 in 2.0 mi Calm Calm - N/A   Overcast
7:15 AM 51.8 °F - 51.8 °F 100% 29.84 in 2.0 mi Calm Calm - N/A   Overcast
7:35 AM 51.8 °F - 51.8 °F 100% 29.84 in 2.0 mi Calm Calm - N/A   Overcast
7:55 AM 51.8 °F - 51.8 °F 100% 29.83 in 2.0 mi Calm Calm - N/A   Overcast
8:15 AM 51.8 °F - 51.8 °F 100% 29.83 in 2.0 mi Calm Calm - N/A   Overcast
8:35 AM 51.8 °F - 51.8 °F 100% 29.82 in 2.0 mi Calm Calm - N/A   Overcast
8:55 AM 51.8 °F - 51.8 °F 100% 29.83 in 1.2 mi Calm Calm - N/A   Overcast
9:15 AM 51.8 °F - 51.8 °F 100% 29.83 in 1.0 mi NW 5.8 mph - N/A   Overcast
9:35 AM 51.8 °F - 51.8 °F 100% 29.81 in 1.0 mi North 6.9 mph - N/A   Overcast
9:55 AM 51.8 °F - 51.8 °F 100% 29.80 in 1.0 mi North 4.6 mph - N/A   Overcast
10:15 AM 51.8 °F - 51.8 °F 100% 29.78 in 1.0 mi Calm Calm - N/A   Overcast
10:35 AM 51.8 °F - 51.8 °F 100% 29.75 in 1.0 mi East 5.8 mph - N/A   Overcast
10:55 AM 53.6 °F - 53.6 °F 100% 29.76 in 1.0 mi Calm Calm - N/A   Overcast
11:15 AM 53.6 °F - 53.6 °F 100% 29.78 in 1.0 mi West 10.4 mph - N/A   Overcast
11:35 AM 50.0 °F - 50.0 °F 100% 29.76 in 1.0 mi WNW 6.9 mph - N/A Rain Light Rain
11:55 AM 50.0 °F - 50.0 °F 100% 29.76 in 1.5 mi WNW 10.4 mph - N/A Rain Light Rain
12:15 PM 48.2 °F - 48.2 °F 100% 29.75 in 1.5 mi NW 9.2 mph - N/A Rain Light Rain
12:35 PM 48.2 °F - 48.2 °F 100% 29.73 in 1.5 mi NNW 10.4 mph - N/A Rain Light Rain
12:55 PM 48.2 °F - 48.2 °F 100% 29.71 in 1.5 mi NNW 9.2 mph - N/A Rain Light Rain
1:15 PM 48.2 °F - 48.2 °F 100% 29.70 in 1.5 mi NW 6.9 mph - N/A Rain Light Rain
1:35 PM 46.4 °F 41.9 °F 46.4 °F 100% 29.70 in 1.5 mi NW 9.2 mph - N/A Rain Light Rain
1:55 PM 46.4 °F 43.5 °F 46.4 °F 100% 29.70 in 1.5 mi NW 5.8 mph - N/A Rain Light Rain
2:15 PM 46.4 °F 45.2 °F 46.4 °F 100% 29.69 in 1.5 mi Variable 3.5 mph - N/A Rain Light Rain
2:35 PM 46.4 °F - 46.4 °F 100% 29.68 in 1.5 mi Calm Calm - N/A Rain Light Rain
2:55 PM 48.2 °F - 46.4 °F 93% 29.69 in 3.0 mi NW 6.9 mph - N/A Rain Light Rain
3:15 PM 46.4 °F 41.1 °F 46.4 °F 100% 29.69 in 2.0 mi NW 11.5 mph - N/A Rain Light Rain
3:35 PM 46.4 °F 41.9 °F 44.6 °F 93% 29.71 in 2.0 mi West 9.2 mph - N/A Rain Light Rain
3:55 PM 44.6 °F 39.2 °F 44.6 °F 100% 29.73 in 1.5 mi West 10.4 mph - N/A Rain Light Rain
4:15 PM 46.4 °F 41.5 °F 44.6 °F 93% 29.70 in 1.5 mi North 10.4 mph - N/A Rain Light Rain
4:35 PM 44.6 °F 43.1 °F 44.6 °F 100% 29.70 in 1.5 mi Variable 3.5 mph - N/A Rain Light Rain
5:15 PM 44.6 °F 40.7 °F 44.6 °F 100% 29.72 in 4.0 mi WNW 6.9 mph - N/A Rain Light Rain
5:35 PM 44.6 °F 40.7 °F 44.6 °F 100% 29.74 in 4.0 mi West 6.9 mph - N/A Rain Light Rain
5:55 PM 44.6 °F 39.7 °F 44.6 °F 100% 29.75 in 4.0 mi WNW 9.2 mph - N/A Rain Light Rain
6:15 PM 44.6 °F 40.2 °F 44.6 °F 100% 29.75 in 4.0 mi WNW 8.1 mph - N/A Rain Light Rain
6:35 PM 44.6 °F 39.7 °F 44.6 °F 100% 29.76 in 4.0 mi WNW 9.2 mph - N/A Rain Light Rain
6:55 PM 44.6 °F 39.2 °F 44.6 °F 100% 29.77 in 10.0 mi WNW 10.4 mph - N/A   Overcast
7:15 PM 44.6 °F 38.4 °F 44.6 °F 100% 29.78 in 10.0 mi WNW 12.7 mph - N/A   Overcast
7:35 PM 44.6 °F 39.2 °F 44.6 °F 100% 29.79 in 10.0 mi WNW 10.4 mph - N/A   Overcast
7:55 PM 44.6 °F 38.1 °F 44.6 °F 100% 29.81 in 10.0 mi WNW 13.8 mph - N/A   Overcast
8:35 PM 44.6 °F 39.2 °F 42.8 °F 93% 29.81 in 10.0 mi NW 10.4 mph - N/A   Overcast
8:55 PM 44.6 °F 39.2 °F 42.8 °F 93% 29.82 in 10.0 mi WNW 10.4 mph - N/A   Overcast
9:15 PM 44.6 °F 40.2 °F 42.8 °F 93% 29.83 in 10.0 mi West 8.1 mph - N/A   Overcast
9:35 PM 44.6 °F 42.2 °F 42.8 °F 93% 29.84 in 10.0 mi WNW 4.6 mph - N/A   Overcast
9:55 PM 44.6 °F 40.7 °F 42.8 °F 93% 29.84 in 10.0 mi West 6.9 mph - N/A   Overcast
10:15 PM 42.8 °F 39.3 °F 42.8 °F 100% 29.84 in 10.0 mi West 5.8 mph - N/A   Overcast
10:35 PM 42.8 °F 41.1 °F 42.8 °F 100% 29.85 in 10.0 mi West 3.5 mph - N/A   Overcast
10:55 PM 42.8 °F 41.1 °F 42.8 °F 100% 29.85 in 10.0 mi WSW 3.5 mph - N/A   Overcast
11:15 PM 42.8 °F - 42.8 °F 100% 29.86 in 10.0 mi Calm Calm - N/A   Overcast
11:35 PM 42.8 °F 41.1 °F 41.0 °F 93% 29.87 in 10.0 mi WSW 3.5 mph - N/A   Overcast
11:55 PM 42.8 °F 41.1 °F 41.0 °F 93% 29.87 in 10.0 mi WSW 3.5 mph - N/A   Partly Cloudy